Weather in Selo im. 9 Yanvarya

Russia / Orenburg Oblast     51°44′02″N   54°59′22″E
temp.,
°C
wind,
m/s
gust,
m/s
humid.,
%
clouds,
%
prec.,
mm/h
press.,
hPa
HPBL,
m
4 march, thu
thu423:00−2nw4996100 2.9 1004378
02:00−7w349398 0.1 100560
05:00−10w459372 0.1 100776
08:00−9w589492 0.3 1008240
11:00−8w589387 0.3 1010332
14:00−6wsw7119298 0.0 1010532
17:00−5sw8148991 0.0 1010638
20:00−3sw91593100 0.3 1009923
5 march, fri
fri523:00−2sw111795100 0.9 1008922
02:00−1wsw101887100 0.8 1007898
05:00−3sw91883100 0.8 1008670
08:00−4sw81786100 0.0 1008625
11:00−2sw101688100 0.0 1008756
14:000sw111897100 0.9 10071007
17:000wsw91698100 2.7 1006837
20:00+1wsw81398100 0.9 1008641
6 march, sat
sat623:000w51098100 2.1 1010499
02:000w5998100 1.8 1011460
05:00−4nnw2296100 2.5 101345
08:00−8nw2292100 0.1 101421
11:00−6n128795 0.1 1015153
14:00−4ese0081100 0.0 1015309
17:00−3ene1182100 0.0 1013331
20:00−5ene3496100 0.4 1012126
7 march, sun
sun723:00−6ne4796100 2.1 1010230
02:00−7nne6995100 1.7 1007344
05:00−7n61095100 2.8 1007364
08:00−8nnw51093100 1.3 1007385
11:00−10nnw6989100 1.5 1011377
14:00−11nw698031 0.0 1013463
17:00−12nw588216 0.0 1015472
20:00−17wnw34890 0.0 101728
8 march, mon
mon823:00−18wsw33930 0.0 101821
02:00−18ssw34910 0.0 101756
05:00−14ssw4109423 0.1 1015306
08:00−10ssw71585100 0.0 1013536
11:00−5sw111784100 0.0 1012973
14:00−3sw111589100 0.1 10121050
17:00−3sw91489100 0.4 1012996
20:00−3ssw91685100 0.4 1011970